Regional Weather Roundup
Issued by NWS

Home | Current Version | Previous Version | Text Only | Print | Product List | Glossary On
Versions: 1 2 3 4 5 6 7 8 9 10 11 12 13 14 15 16 17 18 19 20 21 22 23 24 25 26 27 28 29 30 31 32 33 34 35 36 37 38 39 40 41 42 43 44 45 46 47 48 49 50
000
ASUS43 KTOP 260508
RWRKS

WEATHER ROUNDUP FOR KANSAS
NATIONAL WEATHER SERVICE GOODLAND KS
1200 AM CDT MON SEP 26 2016

NOTE:  "FAIR" INDICATES FEW OR NO CLOUDS BELOW 12,000 FEET WITH NO
SIGNIFICANT WEATHER AND/OR OBSTRUCTIONS TO VISIBILITY.

KSZ001>006-013>018-027>032-041>047-260600-
NORTHWEST KANSAS

CITY           SKY/WX    TMP DP  RH WIND       PRES   REMARKS
GOODLAND       CLEAR     46  35  65 NW3       30.39R
HAYS           CLEAR     46  34  61 NW6       30.33R
HILL CITY      CLEAR     46  36  68 N8        30.34S
RUSSELL        CLEAR     52  40  63 NW7       30.30R
$$

KSZ061>065-074>080-084>089-260600-
SOUTHWEST KANSAS

CITY           SKY/WX    TMP DP  RH WIND       PRES   REMARKS
DODGE CITY     CLEAR     47  36  65 N6        30.34R
ELKHART          N/A     57  32  39 NW3         N/A
GARDEN CITY    CLEAR     49  33  54 N8        30.36R
GREAT BEND     CLEAR     50  39  66 NW5       30.31R
LIBERAL        CLEAR     52  30  43 N5        30.37R
PRATT          CLEAR     48  42  78 N6        30.31R
$$

KSZ066>073-081>083-090>101-260600-
SOUTHEAST KANSAS

CITY           SKY/WX    TMP DP  RH WIND       PRES   REMARKS
CHANUTE        CLOUDY    62  59  90 NW3       30.21R
COFFEYVILLE    CLOUDY    62  61  96 CALM      30.21S
HUTCHINSON     CLEAR     57  44  62 N7        30.28R
MEDICINE LODGE   N/A     54  49  83 N6          N/A
NEWTON         CLEAR    N/A N/A N/A N7        30.27R
PARSONS        CLOUDY    61  60  97 CALM      30.23R
WICHITA INTL   PTCLDY    57  52  83 NW7       30.26R
WICHITA JABRA  CLEAR     56  50  80 N8        30.25S
WICHITA MCCONL CLEAR     58  51  77 N7        30.25S HAZE
WINFIELD       PTCLDY    58  56  93 N5        30.25S
$$

KSZ007>012-019>026-033>040-048>060-102>105-260600-
NORTHEAST KANSAS

CITY           SKY/WX    TMP DP  RH WIND       PRES   REMARKS
CONCORDIA      CLEAR     52  42  69 NW8       30.28R
EMPORIA        CLEAR     57  52  83 NW6       30.24R
LAWRENCE       PTCLDY    56  56 100 NW5       30.22R
MANHATTAN      CLEAR     54  47  77 CALM      30.25S
MARYSVILLE     CLEAR     48  43  81 NW5       30.25S
OLATHE IND     CLOUDY    61  57  87 W6        30.21S
OLATHE EXE     CLOUDY    61  56  83 NW5       30.21R
SALINA         CLEAR     55  46  71 NW5       30.28R
TOPEKA BILLARD CLEAR     57  50  77 NW7       30.22S HAZE
TOPEKA FORBES  CLEAR     57  51  80 NW7       30.23R HAZE
$$



USA.gov is the U.S. government's official web portal to all federal, state and local government web resources and services.